Algona, IA

7:55 AM CST on December 18, 2017 (GMT -0600)
Algona Municipal

Weather History for KAXA - February, 2012

Change the Weather History Date:

Friday, February 17, 2012

  Actual Average Record
Temperature  
Mean Temperature 32 °F -  
Max Temperature 39 °F 30 °F 60 °F (2017)
Min Temperature 24 °F 16 °F -9 °F (2006)
Degree Days  
Heating Degree Days 34    
Moisture  
Dew Point 24 °F    
Average Humidity 74    
Maximum Humidity 93    
Minimum Humidity 60    
Precipitation  
Precipitation 0.00 in - - ()
Sea Level Pressure  
Sea Level Pressure 30.04 in    
Wind  
Wind Speed 11 mph (WNW)    
Max Wind Speed 17 mph    
Max Gust Speed 23 mph    
Visibility 10 miles    
Events      
Averages and records for this station are not official NWS values.
T = Trace of Precipitation, MM = Missing Value Source: NWS Daily Summary

Daily Weather History Graph

Daily Weather History Graph

Search for Another Location

Airport or City:

Trip Planner

Search our weather history database for the weather conditions in past years. The results will help you decide how hot, cold, wet, or windy it might be!

Date:

Astronomy

Feb. 17, 2012 Rise Set
Actual Time 7:12 AM CST 5:50 PM CST
Civil Twilight 6:43 AM CST 6:19 PM CST
Nautical Twilight 6:10 AM CST 6:52 PM CST
Astronomical Twilight 5:37 AM CST 7:25 PM CST
Moon 4:09 AM CST (2/17) 1:39 PM CST (2/17)
Length of Visible Light 11h 35m
Length of Day
10h 37m
Waning Crescent, 19% of the Moon is Illuminated
Feb 17
Waning Crescent
Feb 21
New
Feb 29
First Quarter
Mar 8
Full
Mar 14
Last Quarter

Hourly Weather History & Observations

Time (CST) Temp. Windchill Dew Point Humidity Pressure Visibility Wind Dir Wind Speed Gust Speed Precip Events Conditions
12:15 AM 28.4 °F 19.7 °F 23.0 °F 80% 30.04 in 10.0 mi SSE 9.2 mph - N/A   Clear
12:35 AM 28.4 °F 19.7 °F 23.0 °F 80% 30.04 in 10.0 mi South 9.2 mph - N/A   Clear
12:55 AM 28.4 °F 18.5 °F 23.0 °F 80% 30.04 in 10.0 mi South 11.5 mph - N/A   Scattered Clouds
1:15 AM 28.4 °F 18.5 °F 24.8 °F 86% 30.03 in 10.0 mi South 11.5 mph - N/A   Mostly Cloudy
1:35 AM 28.4 °F 18.0 °F 24.8 °F 86% 30.03 in 10.0 mi South 12.7 mph - N/A   Mostly Cloudy
1:55 AM 28.4 °F 19.1 °F 24.8 °F 86% 30.03 in 10.0 mi South 10.4 mph - N/A   Mostly Cloudy
2:35 AM 26.6 °F 16.2 °F 24.8 °F 93% 30.00 in 10.0 mi South 11.5 mph - N/A   Scattered Clouds
2:55 AM 26.6 °F 15.7 °F 23.0 °F 86% 29.99 in 10.0 mi South 12.7 mph - N/A   Clear
3:15 AM 26.6 °F 15.7 °F 23.0 °F 86% 29.98 in 10.0 mi South 12.7 mph - N/A   Clear
3:35 AM 26.6 °F 16.8 °F 23.0 °F 86% 29.97 in 10.0 mi South 10.4 mph - N/A   Clear
4:15 AM 26.6 °F 16.2 °F 21.2 °F 80% 29.96 in 10.0 mi South 11.5 mph - N/A   Clear
4:35 AM 24.8 °F 14.6 °F 21.2 °F 86% 29.96 in 10.0 mi South 10.4 mph - N/A   Clear
4:55 AM 24.8 °F 15.3 °F 21.2 °F 86% 29.96 in 10.0 mi South 9.2 mph - N/A   Clear
5:15 AM 24.8 °F 16.1 °F 21.2 °F 86% 29.96 in 10.0 mi South 8.1 mph - N/A   Clear
5:35 AM 24.8 °F 16.1 °F 21.2 °F 86% 29.96 in 10.0 mi SSW 8.1 mph - N/A   Clear
6:15 AM 24.8 °F 14.6 °F 21.2 °F 86% 29.95 in 10.0 mi SSW 10.4 mph - N/A   Scattered Clouds
6:35 AM 26.6 °F 17.5 °F 21.2 °F 80% 29.95 in 10.0 mi SW 9.2 mph - N/A   Mostly Cloudy
6:55 AM 24.8 °F 15.3 °F 21.2 °F 86% 29.95 in 10.0 mi SW 9.2 mph - N/A   Mostly Cloudy
7:15 AM 24.8 °F 15.3 °F 21.2 °F 86% 29.96 in 10.0 mi WSW 9.2 mph - N/A   Mostly Cloudy
7:35 AM 24.8 °F 15.3 °F 21.2 °F 86% 29.97 in 10.0 mi West 9.2 mph - N/A   Mostly Cloudy
7:55 AM 26.6 °F 18.2 °F 23.0 °F 86% 29.98 in 10.0 mi West 8.1 mph - N/A   Mostly Cloudy
8:15 AM 26.6 °F 18.2 °F 24.8 °F 93% 29.99 in 10.0 mi WNW 8.1 mph - N/A   Mostly Cloudy
8:35 AM 26.6 °F 18.2 °F 23.0 °F 86% 30.00 in 10.0 mi WNW 8.1 mph - N/A   Scattered Clouds
8:55 AM 28.4 °F 19.1 °F 24.8 °F 86% 30.00 in 10.0 mi NW 10.4 mph - N/A   Clear
9:15 AM 30.2 °F 21.9 °F 24.8 °F 80% 30.01 in 10.0 mi NW 9.2 mph - N/A   Clear
9:35 AM 32.0 °F 23.6 °F 24.8 °F 75% 30.01 in 10.0 mi NNW 10.4 mph - N/A   Clear
9:55 AM 33.8 °F 24.3 °F 26.6 °F 75% 30.01 in 10.0 mi NNW 13.8 mph - N/A   Clear
10:15 AM 33.8 °F 24.8 °F 26.6 °F 75% 30.03 in 10.0 mi NNW 12.7 mph - N/A   Clear
10:35 AM 35.6 °F 27.5 °F 26.6 °F 70% 30.04 in 10.0 mi NW 11.5 mph - N/A   Clear
10:55 AM 35.6 °F 27.1 °F 28.4 °F 75% 30.04 in 10.0 mi NNW 12.7 mph - N/A   Clear
11:15 AM 35.6 °F 28.6 °F 30.2 °F 81% 30.06 in 10.0 mi NW 9.2 mph - N/A   Clear
11:35 AM 37.4 °F 29.3 °F 28.4 °F 70% 30.07 in 10.0 mi NW 12.7 mph - N/A   Clear
11:55 AM 37.4 °F 28.9 °F 28.4 °F 70% 30.07 in 10.0 mi NW 13.8 mph - N/A   Clear
12:15 PM 37.4 °F 28.9 °F 26.6 °F 65% 30.07 in 10.0 mi WNW 13.8 mph - N/A   Clear
12:35 PM 37.4 °F 28.2 °F 26.6 °F 65% 30.06 in 10.0 mi NW 16.1 mph 19.6 mph N/A   Clear
12:55 PM 37.4 °F 28.5 °F 26.6 °F 65% 30.06 in 10.0 mi NW 15.0 mph 18.4 mph N/A   Clear
1:15 PM 39.2 °F 30.2 °F 26.6 °F 61% 30.06 in 10.0 mi NW 17.3 mph 20.7 mph N/A   Clear
1:35 PM 39.2 °F 30.5 °F 26.6 °F 61% 30.06 in 10.0 mi NW 16.1 mph 19.6 mph N/A   Clear
1:55 PM 37.4 °F 28.5 °F 26.6 °F 65% 30.06 in 10.0 mi NW 15.0 mph 23.0 mph N/A   Clear
2:15 PM 37.4 °F 28.5 °F 26.6 °F 65% 30.06 in 10.0 mi NW 15.0 mph 20.7 mph N/A   Scattered Clouds
2:35 PM 37.4 °F 28.5 °F 26.6 °F 65% 30.06 in 10.0 mi NW 15.0 mph 19.6 mph N/A   Scattered Clouds
2:55 PM 37.4 °F 28.2 °F 26.6 °F 65% 30.06 in 10.0 mi NW 16.1 mph 20.7 mph N/A   Mostly Cloudy
3:15 PM 37.4 °F 28.2 °F 24.8 °F 60% 30.06 in 10.0 mi NW 16.1 mph 21.9 mph N/A   Mostly Cloudy
3:35 PM 37.4 °F 28.2 °F 24.8 °F 60% 30.07 in 10.0 mi NW 16.1 mph - N/A   Overcast
3:55 PM 37.4 °F 28.9 °F 24.8 °F 60% 30.07 in 10.0 mi NNW 13.8 mph - N/A   Overcast
4:15 PM 37.4 °F 28.9 °F 24.8 °F 60% 30.07 in 10.0 mi NW 13.8 mph - N/A   Mostly Cloudy
4:35 PM 37.4 °F 27.8 °F 24.8 °F 60% 30.08 in 10.0 mi NNW 17.3 mph - N/A   Mostly Cloudy
4:55 PM 35.6 °F 26.6 °F 23.0 °F 60% 30.09 in 10.0 mi NNW 13.8 mph 20.7 mph N/A   Scattered Clouds
5:15 PM 35.6 °F 26.6 °F 23.0 °F 60% 30.11 in 10.0 mi NNW 13.8 mph 20.7 mph N/A   Clear
5:35 PM 33.8 °F 23.9 °F 21.2 °F 60% 30.11 in 10.0 mi NNW 15.0 mph 21.9 mph N/A   Clear
5:55 PM 33.8 °F 24.8 °F 23.0 °F 65% 30.12 in 10.0 mi NNW 12.7 mph - N/A   Clear
6:15 PM 33.8 °F 25.3 °F 23.0 °F 65% 30.14 in 10.0 mi NW 11.5 mph 19.6 mph N/A   Clear
6:35 PM 32.0 °F 23.6 °F 23.0 °F 69% 30.15 in 10.0 mi NW 10.4 mph - N/A   Scattered Clouds
6:55 PM 30.2 °F 21.9 °F 21.2 °F 69% 30.15 in 10.0 mi NW 9.2 mph - N/A   Clear
7:15 PM 30.2 °F 21.9 °F 21.2 °F 69% 30.15 in 10.0 mi NW 9.2 mph - N/A   Clear
7:35 PM 30.2 °F 21.9 °F 21.2 °F 69% 30.16 in 10.0 mi WNW 9.2 mph - N/A   Clear
7:55 PM 30.2 °F 20.2 °F 19.4 °F 64% 30.16 in 10.0 mi NW 12.7 mph 17.3 mph N/A   Clear
8:15 PM 30.2 °F 21.9 °F 19.4 °F 64% 30.16 in 10.0 mi NNW 9.2 mph - N/A   Clear
8:35 PM 28.4 °F 20.4 °F 19.4 °F 69% 30.17 in 10.0 mi NW 8.1 mph - N/A   Clear
8:55 PM 28.4 °F 21.2 °F 19.4 °F 69% 30.17 in 10.0 mi NW 6.9 mph - N/A   Clear
9:15 PM 28.4 °F 20.4 °F 21.2 °F 74% 30.18 in 10.0 mi WNW 8.1 mph - N/A   Clear
9:35 PM 26.6 °F 19.1 °F 21.2 °F 80% 30.18 in 10.0 mi WNW 6.9 mph - N/A   Clear
9:55 PM 26.6 °F 16.8 °F 19.4 °F 74% 30.18 in 10.0 mi WNW 10.4 mph - N/A   Clear
10:15 PM 26.6 °F 18.2 °F 19.4 °F 74% 30.18 in 10.0 mi WNW 8.1 mph - N/A   Clear
10:35 PM 26.6 °F 17.5 °F 19.4 °F 74% 30.18 in 10.0 mi WNW 9.2 mph - N/A   Clear
10:55 PM 26.6 °F 18.2 °F 19.4 °F 74% 30.18 in 10.0 mi NW 8.1 mph - N/A   Clear
11:15 PM 26.6 °F 19.1 °F 19.4 °F 74% 30.18 in 10.0 mi WNW 6.9 mph - N/A   Clear
11:35 PM 24.8 °F 17.9 °F 19.4 °F 80% 30.18 in 10.0 mi WNW 5.8 mph - N/A   Clear
11:55 PM 24.8 °F 17.9 °F 19.4 °F 80% 30.19 in 10.0 mi West 5.8 mph - N/A   Clear